Regional Weather Roundup
Issued by NWS Albany, NY

Current Version | Previous Version | Text Only | Print | Product List | Glossary On
Versions: 1 2 3 4 5 6 7 8 9 10 11 12 13 14 15 16 17 18 19 20 21 22 23 24 25 26 27 28
000
ASUS41 KALY 261710
RWRALY

NEW YORK STATE HOURLY WEATHER ROUNDUP
NATIONAL WEATHER SERVICE ALBANY NY
100 PM EDT THU APR 26 2018

NOTE: "FAIR" INDICATES FEW OR NO CLOUDS BELOW 12,000 FEET WITH NO
SIGNIFICANT WEATHER AND/OR NO OBSTRUCTIONS TO VISIBILITY.

NYZ032-033-038>043-046>054-057>066-NYZ062>081-082-084-261800-
EAST


CITY           SKY/WX    TMP DP  RH WIND       PRES   REMARKS
ALBANY         PTSUNNY   54  42  64 W18       29.74R
GLENS FALLS    CLOUDY    54  40  59 W18G25    29.67R
POUGHKEEPSIE   FAIR      61  41  47 W17G23    29.71S
NEWBURGH       PTSUNNY   57  43  58 NW15G21   29.74S
MONTGOMERY     PTSUNNY   60  42  51 NW14G23   29.72S
WHITE PLAINS   FAIR      60  40  47 NW17      29.72R
ISLIP          FAIR      65  43  44 NW20G28   29.70S
NEW YORK CITY  FAIR      63  39  41 W13       29.73S
CENTRAL PARK   FAIR      63  40  42 W7        29.77R
$$

NYZ005>009-017-018-044>046-055-056-261800-
CENTRAL


CITY           SKY/WX    TMP DP  RH WIND       PRES   REMARKS
FULTON         LGT RAIN  42  40  92 W13G26    29.80R FOG
SYRACUSE       CLOUDY    44  43  96 W15       29.79R
ROME           CLOUDY    44  41  89 W13G22    29.78S
ELMIRA         PTSUNNY   54  41  61 W17G23    29.82R
BINGHAMTON     CLOUDY    47  38  71 W12       29.78S
MONTICELLO     PTSUNNY   53  40  61 NW17G23   29.75F
$$

NYZ026>034-041>043-087-261800-
NORTH


CITY           SKY/WX    TMP DP  RH WIND       PRES   REMARKS
WATERTOWN      FOG       41  41 100 SW14G24   29.75R VSB 1
FORT DRUM      NOT AVBL
OGDENSBURG     DRIZZLE   47  46  95 W9        29.69S
MASSENA        CLOUDY    49  46  90 SW14G24   29.67R
SARANAC LAKE   CLOUDY    42  39  89 SW12      29.64R
PLATTSBURGH    CLOUDY    53  42  66 SW9G18    29.60R
$$

NYZ001>004-010>016-019>021-085-261800-
WEST


CITY           SKY/WX    TMP DP  RH WIND       PRES   REMARKS
NIAGARA FALLS  FAIR      52  39  61 SW20      29.86F
BUFFALO        FAIR      47  37  68 SW17      29.88F
DUNKIRK        FAIR      47  36  65 W13       29.92S
JAMESTOWN      FAIR      48  32  53 W16G22    29.89S
WELLSVILLE     FAIR      51  36  56 NW17      29.84F
ROCHESTER      PTSUNNY   51  40  65 W16G24    29.83S
PENN YAN       PTSUNNY   49  39  68 W16       29.82S
$$

             KEY
       WCI = WIND CHILL INDEX
       VSB = VISIBILITY
       HX  = HEAT INDEX
$$




USA.gov is the U.S. government's official web portal to all federal, state and local government web resources and services.